This demonstration page uses our WeatherBlox Daily Observations layout. Learn more.

Left ArrowRight Arrow

44.8408, -93.29828

Hourly Observations for March 15, 2015

Temp ( °F °C ) Dew Point ( °F °C ) Humidity (%) Winds ( mph kmh ) Pressure ( in mb ) Visibility ( mi km ) Precip ( " mm )
12:53 am 00:53 Clear 42 5.6 31 -0.6 65 65 SE 3 6 30.11 1020 10 16 0.00 0.00
1:53 am 01:53 Clear 40 4.4 30 -1.1 68 68 ESE 6 9 30.09 1019 10 16 0.00 0.00
2:53 am 02:53 Clear 41 5 30 -1.1 65 65 SE 7 11 30.08 1019 10 16 0.00 0.00
3:53 am 03:53 Partly Cloudy 46 7.8 31 -0.6 56 56 S 6 9 30.07 1018 10 16 0.00 0.00
4:53 am 04:53 Partly Cloudy 41 5 31 -0.6 67 67 ESE 6 9 30.04 1017 10 16 0.00 0.00
5:53 am 05:53 Cloudy 45 7.2 32 0 61 61 SE 9 15 30.01 1016 10 16 0.00 0.00
6:53 am 06:53 Cloudy 46 7.8 31 -0.6 56 56 SSE 9 15 29.99 1016 10 16 0.00 0.00
7:53 am 07:53 Cloudy 48 8.9 30 -1.1 50 50 SSE 10 17 29.97 1015 10 16 0.00 0.00
8:53 am 08:53 Cloudy 52 11.1 27 -2.8 38 38 S 10 17 29.94 1014 10 16 0.00 0.00
9:53 am 09:53 Cloudy 54 12.2 27 -2.8 35 35 SSW 16 26 29.91 1013 10 16 0.00 0.00
10:53 am 10:53 Cloudy 54 12.2 28 -2.2 37 37 SSW 16 26 29.91 1013 10 16 0.00 0.00
11:53 am 11:53 Cloudy 56 13.3 28 -2.2 34 34 SSW 21 33 29.89 1012 10 16 0.00 0.00
12:53 pm 12:53 Cloudy 58 14.4 29 -1.7 33 33 SW 17 28 29.87 1011 10 16 0.00 0.00
1:53 pm 13:53 Mostly Cloudy 61 16.1 31 -0.6 32 32 SSW 14 22 29.87 1011 10 16 0.00 0.00
2:53 pm 14:53 Cloudy 64 17.8 30 -1.1 28 28 SW 15 24 29.85 1011 10 16 0.00 0.00
3:53 pm 15:53 Cloudy 66 18.9 33 0.6 29 29 SW 13 20 29.84 1010 10 16 0.00 0.00
4:53 pm 16:53 Cloudy 70 21.1 35 1.7 28 28 W 15 24 29.85 1011 10 16 0.00 0.00
5:53 pm 17:53 Cloudy 69 20.6 38 3.3 32 32 SW 12 19 29.85 1011 10 16 0.00 0.00
6:53 pm 18:53 Cloudy 67 19.4 39 3.9 36 36 WSW 7 11 29.86 1011 10 16 0.00 0.00
7:53 pm 19:53 Cloudy 65 18.3 43 6.1 45 45 WSW 8 13 29.88 1012 10 16 0.00 0.00
8:53 pm 20:53 Cloudy 63 17.2 44 6.7 50 50 SW 6 9 29.89 1012 10 16 0.00 0.00
9:53 pm 21:53 Cloudy 63 17.2 44 6.7 50 50 W 9 15 29.90 1013 10 16 0.00 0.00
10:53 pm 22:53 Cloudy 61 16.1 44 6.7 54 54 WSW 5 7 29.91 1013 10 16 0.00 0.00
11:53 pm 23:53 Cloudy 56 13.3 43 6.1 62 62 Calm 29.91 1013 10 16 0.00 0.00

Powered by AerisWeather